Location: Palomar Mountain Lodge
(33.3110°N, 116.8495°W)
Time: 13:59:52
(UTC-07:00)

Daily predictions for brighter satellites

Satellite Brightness Start Highest point End
(mag) Time Altitude Azimuth Time Altitude Azimuth Time Altitude Azimuth
Cosmos 2266 Rocket 4.1 19:50:43 10° N 19:56:49 56° E 20:02:45 10° SSE
Meteor 2-3 Rocket 3.7 19:57:45 10° N 20:03:25 83° E 20:08:59 10° S
Cosmos 2263 Rocket 2.3 19:58:03 10° SSW 20:03:36 83° WNW 20:09:11 10° NNE
DELTA 2 R/B (1) 4.3 19:58:33 10° W 20:04:00 55° NNW 20:09:27 10° ENE
H-2A R/B 3.4 19:59:31 10° SSW 20:04:05 40° W 20:08:41 10° NNW
X-37B 2.9 20:02:39 10° W 20:05:20 24° NNW 20:08:01 10° NE
Cosmos 1943 4.3 20:01:46 10° N 20:06:32 27° ENE 20:11:17 10° ESE
Cosmos 1655 Rocket 4.0 20:00:34 10° N 20:06:48 83° E 20:13:01 10° S
Cosmos-2242 4.3 20:03:22 10° SSW 20:07:28 45° W 20:11:33 10° N
Meteor 2-16 Rocket 4.5 20:02:42 10° N 20:08:49 64° E 20:14:52 10° SSE
Meteor 2-21 Rocket 4.4 20:02:43 10° N 20:08:50 78° E 20:14:58 10° S
Cosmos 1869 3.3 20:05:18 10° S 20:09:12 84° W 20:13:05 10° N
CSL-04 Debris 4.2 20:03:57 10° SSE 20:09:23 84° ENE 20:14:49 10° NNW
Cosmos 1844 Rocket 4.0 20:06:29 10° SE 20:10:09 18° E 20:13:49 10° ENE
CZ-2C R/B 3.8 20:05:27 10° N 20:10:36 49° WNW 20:15:50 10° SSW
H-2A R/B 1.8 20:09:47 10° WSW 20:11:25 20° S 20:12:54 11° SE
Meteor 1-4 Rocket 3.9 20:12:46 10° SSW 20:16:08 42° W 20:19:35 10° N
OBJECT-B 1.8 20:15:34 11° SE 20:18:14 29° ENE 20:21:07 10° NNE
USA 229 DEB 4.2 20:11:04 10° NNW 20:18:25 57° ENE 20:25:39 12° SE
USA 229 4.2 20:11:10 10° NNW 20:18:30 56° NE 20:25:43 12° SE
ERS-2 2.4 20:18:03 10° N 20:21:39 71° WNW 20:25:15 10° SSW
Helios 1A Rocket 2.9 20:19:50 10° SSE 20:23:55 88° E 20:28:04 10° NNW
Cosmos 1763 Rocket 3.5 20:21:42 10° NNW 20:26:47 80° WSW 20:31:53 10° SSE
Meteor 2-15 4.4 20:22:25 10° S 20:28:23 68° E 20:34:24 10° NNE
Lacrosse 5 rocket 1.5 20:24:50 10° NNW 20:29:09 69° NE 20:32:35 17° SE
Resurs 01 Rocket 3.4 20:27:23 13° E 20:29:10 16° ENE 20:31:47 10° NNE
CSL-04 Rocket 3.9 20:24:00 10° S 20:29:14 68° WSW 20:34:31 10° NNW
Cosmos 841 Rocket 3.8 20:26:41 10° N 20:31:40 48° ENE 20:35:37 16° SE
SJ-6B 2.9 20:28:46 12° SSE 20:32:06 53° ENE 20:35:52 10° N
Cosmos 2221 2.4 20:29:27 10° S 20:33:39 64° E 20:37:55 10° NNE
Cosmos 1766 Rocket 3.7 20:31:39 10° N 20:36:02 78° W 20:40:26 10° S
Cosmos 468 Rocket 4.5 20:31:38 10° NNW 20:36:43 60° WSW 20:41:49 10° S
NOSS 3-1 (A) 4.3 20:29:03 10° NNW 20:37:00 71° ENE 20:44:34 16° SE
Cosmos 482 Debris 3.7 20:39:34 10° NNW 20:41:22 28° NE 20:41:25 27° NE
MOS 1 4.5 20:39:34 15° SE 20:44:02 53° ENE 20:49:32 10° N
Cosmos 1174 3.7 20:43:57 10° NNW 20:47:23 45° ENE 20:48:23 32° ESE
USA 186 2.8 20:49:20 10° S 20:51:59 36° W 20:54:28 10° NNW
Nadezhda 2 Rocket 4.4 20:46:09 10° N 20:52:13 64° E 20:57:01 17° SSE
Cosmos 1570 Rocket 4.2 20:48:07 10° N 20:53:15 54° ENE 20:56:04 26° SE
Cosmos 1553 Rocket 4.0 20:48:34 10° S 20:54:29 59° E 21:00:31 10° NNE
Ariane Rocket 2.9 20:55:02 21° SSE 20:58:22 69° ENE 21:03:24 10° N
SPOT 3 Rocket 4.1 21:04:23 30° ESE 21:06:04 39° ENE 21:10:50 10° N
Cosmos 1417 Rocket 4.4 21:02:15 12° S 21:08:01 65° E 21:14:09 10° NNE
Cosmos 1603 3.8 21:04:20 10° NNW 21:09:59 77° WSW 21:13:25 24° S
Cosmos 1606 2.6 21:10:25 26° S 21:12:24 84° W 21:16:10 10° N
Cosmos 1814 Rocket 3.9 21:08:41 10° NNW 21:13:55 85° ENE 21:16:14 34° SSE
ARIANE 5 R/B 4.5 21:19:07 16° ENE 21:19:07 16° ENE 21:21:18 10° NNE
GENESIS II 4.3 21:15:11 10° NW 21:19:01 68° WSW 21:19:46 52° S
ASTRO E2 2.6 21:19:35 10° W 21:23:32 65° S 21:23:32 65° S
Cosmos 1933 4.0 21:26:46 41° ENE 21:26:46 41° ENE 21:29:52 10° NNE
Cosmos 1486 Rocket 4.0 21:24:41 10° SSW 21:29:59 84° WNW 21:35:20 10° NNE
Resurs 1-3 4.3 21:32:34 30° SSW 21:34:21 49° W 21:38:36 10° NNW
Cosmos 968 Rocket 4.0 21:29:42 10° SSW 21:34:51 58° WNW 21:40:02 10° N
Cosmos 921 Rocket 4.2 21:34:08 10° NNW 21:38:02 36° W 21:39:28 28° SW
Cosmos 1805 Rocket 3.5 21:34:34 10° N 21:38:37 65° ENE 21:38:37 65° ENE
X-37B 3.8 21:42:00 10° NNW 21:42:46 11° N 21:43:31 10° N
Terra 3.9 21:46:08 15° NE 21:46:08 15° NE 21:47:50 10° NNE
Cosmos 1943 4.5 21:45:31 10° NW 21:50:32 34° WSW 21:53:12 22° SSW
DELTA 2 R/B (1) 4.5 21:45:45 10° WNW 21:51:03 44° N 21:53:15 30° NE
Cosmos 1437 Rocket 4.3 21:52:15 27° WSW 21:53:23 32° WNW 21:56:52 10° NNW
Cosmos 1844 Rocket 3.6 21:48:15 10° SW 21:53:34 47° WNW 21:58:55 10° N
Meteor 1-26 Rocket 4.1 21:56:54 72° ESE 21:57:09 73° E 22:02:48 10° NNE
Cosmos 883 Rocket 4.4 22:02:55 56° S 22:04:24 86° W 22:10:44 10° N
Resurs 01 Rocket 2.7 22:04:57 38° WSW 22:05:17 38° W 22:09:26 10° NNW
Spot 2 Rocket 3.7 22:07:14 59° NNE 22:07:14 59° NNE 22:11:33 10° N
MetOp-B 4.2 22:06:44 65° SW 22:07:10 68° WSW 22:12:30 10° NNW
Lacrosse 5 rocket 4.1 22:06:18 10° W 22:07:52 12° WSW 22:08:13 12° WSW
Cosmos 1745 Rocket 4.2 22:02:13 10° NNW 22:08:21 66° W 22:09:46 51° SSW
Cosmos 1709 Rocket 3.8 22:05:33 10° N 22:11:33 72° ENE 22:11:33 72° ENE
Cosmos 2315 Rocket 3.9 22:12:10 71° S 22:12:56 89° W 22:19:20 10° N
NOSS 3-3 (A) 3.8 22:20:48 73° NNE 22:20:48 73° NNE 22:26:23 10° NNE
NOSS 3-3 (C) 3.8 22:21:01 70° NNE 22:21:01 70° NNE 22:26:29 10° NNE
ATLAS 5 CENTAUR R/B 3.2 22:24:03 10° NNW 22:29:11 40° NE 22:29:11 40° NE
ERS-1 Rocket 3.8 22:31:21 45° N 22:31:21 45° N 22:34:50 10° N
Cosmos 1833 Rocket 4.5 22:28:13 10° N 22:31:21 20° NE 22:31:21 20° NE
SPOT 1/Viking Rocket 4.3 22:33:07 46° W 22:33:07 46° W 22:37:42 10° NNW
SL-4 R/B 3.9 22:36:25 10° NW 22:38:58 32° NNW 22:38:58 32° NNW
CZ-4C R/B 4.1 22:37:27 10° N 22:44:00 31° NE 22:45:05 30° ENE
Cosmos 2082 Rocket 4.3 22:56:04 10° NNE 22:58:24 17° NE 22:58:24 17° NE
SPOT 5 4.5 23:02:31 33° NW 23:02:31 33° NW 23:05:30 10° NNW
Cosmos 2278 Rocket 3.6 23:20:17 34° N 23:20:17 34° N 23:23:33 10° NNE
Terra 4.0 23:25:00 22° NW 23:25:00 22° NW 23:26:51 10° NNW
